Weather History for Cartersville, GA

Change the Weather History Date:

Thursday, October 25, 2012

  Actual Average Record
Temperature  
Mean Temperature 64 °F 58 °F  
Max Temperature 80 °F 71 °F 81 °F (2000)
Min Temperature 50 °F 45 °F 29 °F (2013)
Degree Days  
Heating Degree Days 0 8  
Month to date heating degree days 121  
Since 1 July heating degree days 139  
Cooling Degree Days 0 1  
Month to date cooling degree days 35  
Year to date cooling degree days 1507  
Growing Degree Days 14 (Base 50)    
Moisture  
Dew Point 55 °F    
Average Humidity 78    
Maximum Humidity 100    
Minimum Humidity 42    
Precipitation  
Precipitation 0.00 in 0.10 in 1.96 in (1970)
Month to date precipitation 2.71  
Year to date precipitation 40.92  
Sea Level Pressure  
Sea Level Pressure 30.06 in    
Wind  
Wind Speed 2 mph (ESE)    
Max Wind Speed 7 mph    
Max Gust Speed 16 mph    
Visibility 10 miles    
Events      
T = Trace of Precipitation, MM = Missing Value Source: NWS Daily Summary

Daily Weather History Graph

Daily Weather History Graph

Search for Another Location

Airport:

Trip Planner

Search our weather history database for the weather conditions in past years. The results will help you decide how hot, cold, wet, or windy it might be!

Date:

Astronomy

Oct. 25, 2012 Rise Set
Actual Time 7:53 AM EDT 6:52 PM EDT
Civil Twilight 7:27 AM EDT 7:18 PM EDT
Nautical Twilight 6:58 AM EDT 7:47 PM EDT
Astronomical Twilight 6:29 AM EDT 8:17 PM EDT
Moon 4:30 PM EDT (10/25) 3:58 AM EDT (10/25)
Length of Visible Light 11h 50m
Length of Day
10h 59m
Waxing Gibbous, 84% of the Moon is Illuminated
Oct 25
Waxing Gibbous
Oct 29
Full
Nov 6
Last Quarter
Nov 13
New
Nov 20
First Quarter

Hourly Weather History & Observations

Time (EDT) Temp. Dew Point Humidity Pressure Visibility Wind Dir Wind Speed Gust Speed Precip Events Conditions
12:53 AM 51.1 °F 51.1 °F 100% 30.09 in 9.0 mi Calm Calm - N/A   Clear
1:53 AM 50.0 °F 50.0 °F 100% 30.09 in 9.0 mi ESE 3.5 mph - N/A   Clear
2:53 AM 50.0 °F 50.0 °F 100% 30.07 in 9.0 mi Calm Calm - N/A   Clear
3:53 AM 55.9 °F 54.0 °F 93% 30.06 in 10.0 mi Calm Calm - N/A   Clear
4:53 AM 55.0 °F 54.0 °F 96% 30.06 in 10.0 mi Calm Calm - N/A   Clear
5:53 AM 52.0 °F 52.0 °F 100% 30.07 in 9.0 mi Calm Calm - N/A   Clear
6:53 AM 54.0 °F 52.0 °F 93% 30.09 in 10.0 mi Calm Calm - N/A   Clear
7:53 AM 54.0 °F 53.1 °F 97% 30.09 in 10.0 mi East 3.5 mph - N/A   Clear
8:53 AM 55.9 °F 54.0 °F 93% 30.10 in 10.0 mi Calm Calm - N/A   Clear
9:53 AM 62.1 °F 55.9 °F 80% 30.12 in 10.0 mi East 3.5 mph - N/A   Clear
10:53 AM 68.0 °F 57.9 °F 70% 30.11 in 10.0 mi NE 4.6 mph - N/A   Clear
11:53 AM 73.0 °F 59.0 °F 61% 30.10 in 10.0 mi SE 6.9 mph - N/A   Clear
12:53 PM 75.0 °F 55.9 °F 51% 30.08 in 10.0 mi South 4.6 mph 16.1 mph N/A   Mostly Cloudy
2:53 PM 75.9 °F 55.0 °F 48% 30.04 in 10.0 mi SE 4.6 mph - N/A   Scattered Clouds
3:53 PM 79.0 °F 54.0 °F 42% 30.02 in 10.0 mi Variable 4.6 mph - N/A   Clear
4:53 PM 77.0 °F 55.9 °F 48% 30.02 in 10.0 mi East 3.5 mph - N/A   Mostly Cloudy
5:53 PM 77.0 °F 55.0 °F 47% 30.02 in 10.0 mi East 4.6 mph - N/A   Mostly Cloudy
6:53 PM 66.9 °F 57.9 °F 73% 30.03 in 10.0 mi Calm Calm - N/A   Clear
7:53 PM 63.0 °F 57.0 °F 81% 30.04 in 10.0 mi Calm Calm - N/A   Clear
8:53 PM 61.0 °F 57.0 °F 87% 30.04 in 10.0 mi Calm Calm - N/A   Clear
9:53 PM 64.9 °F 57.0 °F 75% 30.03 in 10.0 mi Calm Calm - N/A   Clear
10:53 PM 64.9 °F 57.9 °F 78% 30.04 in 10.0 mi Calm Calm - N/A   Clear
11:53 PM 59.0 °F 55.9 °F 90% 30.02 in 10.0 mi Calm Calm - N/A   Clear